Location: Beugnon
(47.6222°N, 3.7850°E)
Time: 23:46:27
(UTC+00:00)

Cosmos 2208 Rocket - Pass Details

Date: 09 April 2020
Orbit: 754 x 806 km, 74.0° (Epoch: 29 May)

Event Time Altitude Azimuth Distance (km) Brightness Sun altitude
Rises 21:28:29 0° 334° (NNW) 3,225 8.5 -26.6°
Reaches altitude 10° 21:30:52 10° 332° (NNW) 2,300 7.4 -26.8°
Maximum altitude 21:36:01 63° 252° (WSW) 856 4.2 -27.4°
Enters shadow 21:36:05 63° 247° (WSW) 856 4.2 -27.4°
